Location: Antioch Church
(37.9070°N, 88.8265°W)
Time: 07:56:04
(UTC+00:00)

Daily predictions for brighter satellites

Satellite Brightness Start Highest point End
(mag) Time Altitude Azimuth Time Altitude Azimuth Time Altitude Azimuth
Cosmos 841 Rocket 3.7 12:02:47 10° SW 12:07:42 46° WNW 12:12:39 10° N
PAYLOAD B 4.4 12:03:23 10° NNE 12:08:59 79° ESE 12:14:35 10° S
PSLV R/B 3.9 12:05:24 10° N 12:09:17 56° WNW 12:13:14 10° SSW
Cosmos 1898 Rocket 4.0 12:04:57 10° NW 12:09:41 37° WSW 12:14:24 10° SSW
FALCON 9 R/B 3.3 12:09:45 10° WSW 12:11:28 12° SW 12:12:43 10° SSW
Cosmos 2237 Rocket 2.4 12:06:18 10° SW 12:11:43 47° WNW 12:17:12 10° N
SMAP 3.3 12:07:22 10° NNE 12:12:03 75° ESE 12:16:40 10° S
H-2A R/B 2.8 12:08:04 10° NNE 12:12:34 82° ESE 12:17:05 10° S
Okean O Rocket 2.5 12:08:28 10° NNE 12:12:45 53° E 12:16:58 10° S
Cosmos 1092 Rocket 4.0 12:08:10 10° N 12:14:20 88° E 12:20:31 10° S
Cosmos 2333 Rocket 3.8 12:13:27 13° WNW 12:14:21 14° NW 12:17:07 10° NNW
CZ-2C R/B 2.9 12:09:32 10° SSE 12:14:40 69° ENE 12:19:56 10° N
Cosmos 1943 Rocket 4.4 12:11:01 10° N 12:15:22 22° NE 12:19:40 10° ESE
ATLAS CENTAUR R/B 1.5 12:11:42 10° SSW 12:15:24 65° ESE 12:19:02 10° NE
Spot 2 3.8 12:11:59 10° N 12:16:00 71° WNW 12:20:02 10° SSW
GPS 2-04 Rocket1 4.3 12:13:17 12° WSW 12:16:26 26° SSW 12:19:55 10° SE
Cosmos 1570 Rocket 4.2 12:12:09 10° SW 12:17:09 47° WNW 12:22:12 10° N
Cosmos 2034 Rocket 4.4 12:12:38 10° SSW 12:18:36 41° WNW 12:24:36 10° N
Cosmos 2219 Rocket 3.7 12:17:16 13° WNW 12:18:42 14° NW 12:21:29 10° NNW
SL-8 R/B 4.0 12:14:57 12° NW 12:19:23 63° NNE 12:24:10 10° ESE
Cosmos 1300 3.3 12:16:50 10° S 12:20:34 60° E 12:24:19 10° NNE
AQUARIUS 4.3 12:16:12 10° NNE 12:20:43 82° E 12:25:12 10° S
YAOGAN 6 3.5 12:19:44 10° NNW 12:22:58 29° WNW 12:26:11 10° SW
Cosmos 1953 3.5 12:21:02 10° SW 12:24:08 22° WNW 12:27:15 10° NNW
NOAA 12 4.1 12:21:16 10° N 12:26:34 82° WNW 12:31:52 10° SSW
FALCON 9 DEB 4.4 12:25:36 11° W 12:28:12 23° NNW 12:30:59 10° NNE
Cosmos 1602 Rocket 3.7 12:24:44 10° NNW 12:29:08 58° W 12:33:30 10° S
Nadezhda 4 Rocket 4.4 12:26:20 10° NNW 12:31:55 38° W 12:37:28 10° SSW
USA 307 3.1 12:28:06 10° SW 12:32:18 77° SE 12:36:32 10° NE
COSMOS 2428 4.4 12:31:43 10° WNW 12:34:11 13° NW 12:36:40 10° NNW
MOS 1-B 4.4 12:29:31 10° N 12:35:11 59° WNW 12:40:50 10° SSW
ERS-2 4.1 12:34:03 10° WSW 12:35:20 12° W 12:36:38 10° WNW
Cosmos 1634 Rocket 4.0 12:29:20 10° SSW 12:35:28 69° W 12:41:37 10° N
Cosmos 1908 4.3 12:33:22 10° SW 12:36:23 22° WNW 12:39:26 10° NNW
CENTAUR R/B 2.9 12:34:34 10° SSW 12:40:08 68° ESE 12:46:43 10° NE
USA 308 2.9 12:36:46 10° SW 12:40:59 89° WNW 12:45:13 10° NE
CORIOLIS 4.1 12:36:38 10° N 12:41:59 74° WNW 12:47:18 10° SSW
CZ-4B R/B 3.2 23:23:05 10° SSE 23:28:34 78° ENE 23:34:11 10° N
H-2A R/B 2.3 23:24:43 10° N 23:29:10 82° WNW 23:33:29 10° SSW
SL-24 R/B 4.1 23:25:24 10° SSE 23:29:41 77° ENE 23:34:12 10° N
Cosmos 1818 4.2 23:25:32 10° S 23:30:27 37° ESE 23:35:27 10° NE
Cosmos 1634 Rocket 4.1 23:27:08 10° N 23:33:25 90° W 23:39:43 10° S
Cosmos 2228 2.9 23:34:11 10° N 23:38:27 69° E 23:42:43 10° SSE
Meteor 2-10 Rocket 4.2 23:33:42 10° N 23:38:40 34° ENE 23:43:24 10° SE
X-37B 0.6 23:36:01 10° SW 23:39:11 74° SSE 23:42:22 10° ENE
Cosmos 1603 3.9 23:35:16 10° NNW 23:41:00 82° WSW 23:46:44 10° SSE
SJ 16-02 2.2 23:38:13 10° SSE 23:42:01 29° E 23:45:50 10° NE
DELTA 2 R/B (1) 4.2 23:37:20 10° W 23:42:46 57° SSW 23:48:11 10° SE
SKYMED 2 3.8 23:40:50 10° NNE 23:45:04 51° E 23:49:17 10° S
ATLAS 5 CENTAUR R/B 3.5 23:42:50 10° W 23:45:58 21° NW 23:49:21 10° N
MOS 1 Rocket 3.6 23:43:20 10° NNE 23:47:22 38° E 23:51:22 10° SSE
FengYun 1-2 T 4.3 23:42:08 10° SSE 23:47:40 87° WSW 23:53:18 10° NNW
Cosmos 1455 3.6 23:45:21 10° NNE 23:47:59 18° ENE 23:50:38 10° ESE
Cosmos 1300 3.2 23:48:41 10° NNW 23:52:28 65° W 23:56:14 10° S
ISS -3.7 23:50:33 10° SW 23:53:53 77° NW 23:56:50 13° NE
